Location: Winter Haven
(28.0220°N, 81.7330°W)
Time: 05:37:26
(UTC-05:00)

Amateur Radio Satellites - All Passes

Search period start: 18 December 2014 05:07
Search period end: 19 December 2014 05:07
Location: Winter Haven, 28.0220°N, 81.7330°W

Satellite Date Start Highest point End Downlink Frequencies (MHz)
Time Altitude Azimuth
AIST 1 18 Dec 05:12:38 05:16:08 25° 270° (W) 05:19:38
JAS-2 18 Dec 05:35:01 05:40:35 90° 102° (ESE) 05:45:46 435.910
CUBESAT XI-V 18 Dec 05:45:41 05:49:16 22° 71° (ENE) 05:52:51 437.345
Cubesat XI-IV 18 Dec 06:02:07 06:06:46 30° 98° (E) 06:11:23 437.490
GONETS M04 18 Dec 06:15:17 06:24:07 88° 94° (E) 06:33:00
PRISM 18 Dec 06:18:25 06:22:33 54° 259° (W) 06:26:42 437.425
STRAND 1 18 Dec 06:22:56 06:27:54 54° 74° (ENE) 06:32:53 437.568
CUTE-I 18 Dec 06:35:42 06:41:00 70° 102° (ESE) 06:46:17 437.470
PHONESAT 2.4 18 Dec 06:46:43 06:48:14 12° 353° (N) 06:49:44 2401.200-2431.200
VERMONT LUNAR 18 Dec 06:47:30 06:48:24 11° 358° (N) 06:49:18 437.305
AO-7 18 Dec 06:58:25 07:01:00 12° 304° (NW) 07:03:36 29.400- 29.500
CUBESAT XI-V 18 Dec 07:22:38 07:26:30 26° 263° (W) 07:30:23 437.345
SO-50 18 Dec 07:29:33 07:34:28 77° 63° (ENE) 07:39:21 436.795
Cubesat XI-IV 18 Dec 07:42:27 07:46:37 24° 290° (WNW) 07:50:48 437.490
HO-68 18 Dec 07:47:19 07:49:04 11° 93° (E) 07:50:48 435.675
STRAND 1 18 Dec 08:05:25 08:07:16 12° 266° (W) 08:09:07 437.568
GONETS M04 18 Dec 08:18:00 08:21:51 13° 290° (WNW) 08:25:44
CUTE-I 18 Dec 08:19:25 08:20:24 11° 295° (WNW) 08:21:23 437.470
GOMX 1 18 Dec 08:19:28 08:21:35 13° 95° (E) 08:23:45 467.674
VERMONT LUNAR 18 Dec 08:25:29 08:27:45 16° 15° (NNE) 08:30:00 437.305
PHONESAT 2.4 18 Dec 08:26:02 08:27:59 14° 11° (N) 08:29:57 2401.200-2431.200
AAUSAT CUBESAT 2 18 Dec 08:41:58 08:44:32 16° 95° (E) 08:47:04 437.432
CANX-2 18 Dec 08:44:27 08:48:20 32° 98° (E) 08:52:11 2200.000
DOVE 4 18 Dec 08:56:03 09:00:01 25° 98° (E) 09:04:09 437.250
COMPASS 1 18 Dec 09:13:55 09:18:02 48° 100° (E) 09:22:07 437.405
BRITE-PL 18 Dec 09:14:21 09:19:07 82° 102° (ESE) 09:24:18 437.365/2234.400
MaSat-1 18 Dec 09:15:09 09:17:38 89° 301° (WNW) 09:19:59 437.345
CUTE 1.7 + AOD 2 18 Dec 09:15:17 09:19:36 76° 101° (ESE) 09:23:53 437.475
SEEDS 18 Dec 09:15:34 09:19:49 64° 101° (E) 09:24:02 437.485
DX 1 18 Dec 09:16:33 09:18:51 14° 96° (E) 09:21:09 434.975-435.025
HO-68 18 Dec 09:30:07 09:37:18 87° 286° (WNW) 09:44:26 435.675
CINEMA 3 18 Dec 09:41:13 09:45:49 47° 100° (E) 09:50:34 145.822/145.860
Oscar 11 18 Dec 09:42:17 09:46:26 43° 99° (E) 09:50:34 145.826/435.025
CUBEBUG 2 18 Dec 09:43:10 09:47:11 28° 98° (E) 09:51:14 437.445
ANTELSAT 18 Dec 09:46:28 09:49:55 24° 72° (ENE) 09:53:26 437.575/2403.000
DELFI C3 18 Dec 09:47:07 09:50:59 39° 99° (E) 09:54:49 145.870
UKube-1 18 Dec 09:49:07 09:53:07 36° 99° (E) 09:57:05 .
DUCHIFAT 1 18 Dec 09:49:44 09:52:10 15° 70° (ENE) 09:54:37 145.980
HUMSAT D 18 Dec 09:53:01 09:54:47 12° 95° (E) 09:56:32 437.325/437.525
GOMX 1 18 Dec 09:55:05 09:59:43 49° 284° (WNW) 10:04:40 467.674
VELOX 1 18 Dec 09:59:38 10:01:54 14° 95° (E) 10:04:09 145.980
QB50P2 18 Dec 10:00:25 10:03:39 22° 72° (ENE) 10:06:52 145.880/145.840
CUSAT 1 18 Dec 10:01:19 10:04:16 63° 95° (E) 10:08:01 437.405
BUGSAT 1 18 Dec 10:01:44 10:04:23 17° 71° (ENE) 10:07:01 437.445
VERMONT LUNAR 18 Dec 10:03:00 10:06:31 64° 30° (NNE) 10:10:02 437.305
PHONESAT 2.4 18 Dec 10:03:51 10:07:19 41° 27° (NNE) 10:10:47 2401.200-2431.200
ZACube-1 18 Dec 10:05:29 10:09:40 35° 99° (E) 10:13:52 437.345
POLYITAN 1 18 Dec 10:07:54 10:11:27 27° 73° (ENE) 10:14:59 437.675
NANOSAT C BR1 18 Dec 10:12:25 10:16:06 30° 73° (ENE) 10:19:46 145.865
AAUSAT CUBESAT 2 18 Dec 10:16:30 10:20:09 29° 287° (WNW) 10:23:46 437.432
CANX-2 18 Dec 10:21:30 10:23:56 15° 290° (WNW) 10:26:21 2200.000
TIGRISAT 18 Dec 10:22:50 10:27:05 69° 76° (ENE) 10:31:26 435.000
QB50P1 18 Dec 10:25:57 10:29:58 45° 75° (ENE) 10:34:00 145.935-145.965
UWE-3 18 Dec 10:26:32 10:31:09 80° 102° (ESE) 10:35:49 435.000/436.395/437.385
FUNcube-1 18 Dec 10:32:44 10:37:17 78° 102° (ESE) 10:41:52 145.935
DOVE 4 18 Dec 10:33:40 10:37:37 26° 287° (WNW) 10:41:44 437.250
O/OREOS (USA 219) 18 Dec 10:36:21 10:37:43 11° 62° (ENE) 10:39:04 437.305
AISAT 18 Dec 10:39:27 10:43:43 46° 100° (E) 10:47:59 437.250
DANDE 18 Dec 10:40:30 10:43:13 35° 283° (WNW) 10:46:34 436.750
YUBILEINY 18 Dec 10:41:07 10:48:02 26° 76° (ENE) 10:54:54 435.215
UNISAT 6 18 Dec 10:50:39 10:54:48 50° 260° (W) 10:59:04 437.425
DX 1 18 Dec 10:51:12 10:55:06 33° 287° (WNW) 10:59:00 434.975-435.025
POPSAT HIP 1 18 Dec 10:54:05 10:58:17 74° 258° (WSW) 11:02:29 437.405
CUBEBUG 1 18 Dec 10:55:56 10:59:22 23° 97° (E) 11:02:47 437.445
CUBEBUG 2 18 Dec 11:20:12 11:23:38 21° 288° (WNW) 11:27:07 437.445
CINEMA 3 18 Dec 11:20:17 11:22:36 14° 290° (WNW) 11:24:58 145.822/145.860
Oscar 11 18 Dec 11:20:40 11:22:09 12° 291° (WNW) 11:23:39 145.826/435.025
HO-68 18 Dec 11:21:45 11:23:57 12° 300° (WNW) 11:26:10 435.675
ANTELSAT 18 Dec 11:23:27 11:26:36 20° 264° (W) 11:29:49 437.575/2403.000
DUCHIFAT 1 18 Dec 11:24:03 11:27:44 29° 262° (W) 11:31:25 145.980
DELFI C3 18 Dec 11:24:41 11:25:50 11° 291° (WNW) 11:26:59 145.870
50 SAT 18 Dec 11:24:54 11:28:55 50° 284° (WNW) 11:32:56 437.505
HUMSAT D 18 Dec 11:26:37 11:30:38 38° 285° (WNW) 11:34:39 437.325/437.525
UKube-1 18 Dec 11:26:45 11:28:54 14° 291° (WNW) 11:31:03 .
ESTCUBE 1 18 Dec 11:27:00 11:31:27 63° 101° (E) 11:35:52 437.505/2401.250
VELOX 1 18 Dec 11:34:29 11:38:30 35° 286° (WNW) 11:42:32 145.980
BUGSAT 1 18 Dec 11:36:11 11:39:38 26° 262° (W) 11:43:04 437.445
QB50P2 18 Dec 11:36:14 11:39:24 21° 263° (W) 11:42:35 145.880/145.840
VERMONT LUNAR 18 Dec 11:42:30 11:44:34 15° 221° (SW) 11:46:38 437.305
PHONESAT 2.4 18 Dec 11:42:50 11:45:54 25° 219° (SW) 11:48:58 2401.200-2431.200
ZACube-1 18 Dec 11:43:00 11:45:41 16° 290° (WNW) 11:48:23 437.345
POLYITAN 1 18 Dec 11:44:38 11:47:19 17° 264° (W) 11:50:01 437.675
RS-15 18 Dec 11:46:43 11:57:33 64° 111° (ESE) 12:08:14 29.354- 29.394
NANOSAT C BR1 18 Dec 11:49:36 11:51:57 15° 265° (W) 11:54:18 145.865
JUGNU 18 Dec 11:59:36 12:04:08 22° 165° (SSE) 12:08:39 437.505
O/OREOS (USA 219) 18 Dec 12:12:58 12:17:18 48° 255° (WSW) 12:21:40 437.305
SPROUT 18 Dec 12:13:56 12:18:00 41° 99° (E) 12:22:04 437.525
AISAT 18 Dec 12:18:34 12:19:53 11° 292° (WNW) 12:21:11 437.250
TISAT 1 18 Dec 12:19:06 12:23:14 53° 100° (E) 12:27:21 437.305
CUBEBUG 1 18 Dec 12:32:19 12:35:33 21° 289° (WNW) 12:38:47 437.445
YUBILEINY 18 Dec 12:36:42 12:44:59 51° 270° (W) 12:53:17 435.215
BEESAT 3 18 Dec 12:42:45 12:44:51 14° 108° (ESE) 12:46:59 437.485
PCSat 18 Dec 12:49:11 12:50:22 11° 103° (ESE) 12:51:32 145.827
Oscar 19 18 Dec 12:51:11 12:55:58 41° 73° (ENE) 13:00:46 437.125/150
SRMSAT 18 Dec 12:58:40 13:02:36 18° 162° (SSE) 13:06:30 437.500
ITAMSAT 1 18 Dec 13:02:47 13:06:13 18° 69° (ENE) 13:09:38 435.822/435.867
BEESAT 2 18 Dec 13:18:27 13:22:10 35° 112° (ESE) 13:25:57 435.950
M-CUBED/EXP-1 PRIME 18 Dec 13:28:15 13:30:16 13° 97° (E) 13:32:12 437.505
ITUPSAT 1 18 Dec 13:30:26 13:34:57 42° 100° (E) 13:39:26 437.325
SWISSCUBE 18 Dec 13:30:58 13:35:34 48° 100° (E) 13:40:08 437.505
JUGNU 18 Dec 13:47:22 13:52:45 35° 174° (S) 13:58:08 437.505
SPROUT 18 Dec 13:52:10 13:53:40 12° 291° (WNW) 13:55:09 437.525
ISS 18 Dec 13:55:03 13:58:20 77° 313° (NW) 14:01:38 145.825
BEESAT 18 Dec 13:56:22 14:01:09 90° 106° (ESE) 14:05:54 436.000
RS-15 18 Dec 14:01:19 14:10:25 30° 310° (NW) 14:19:35 29.354- 29.394
KKS-1 18 Dec 14:05:01 14:08:01 18° 96° (E) 14:11:00 437.445
AO-7 18 Dec 14:05:29 14:08:47 13° 57° (ENE) 14:12:06 29.400- 29.500
STARS 18 Dec 14:08:15 14:09:41 11° 95° (E) 14:11:07 437.465
AIST 2 18 Dec 14:10:54 14:15:03 68° 114° (ESE) 14:19:17 435.215
BEESAT 3 18 Dec 14:19:01 14:22:41 32° 300° (WNW) 14:26:25 437.485
Gurwin Techsat 1B 18 Dec 14:20:30 14:25:46 71° 76° (ENE) 14:31:03 435.225
HORYU 2 18 Dec 14:25:38 14:29:16 25° 72° (ENE) 14:32:55 437.375
PCSat 18 Dec 14:27:46 14:33:07 66° 295° (WNW) 14:38:30 145.827
Oscar 19 18 Dec 14:32:16 14:35:22 16° 265° (W) 14:38:30 437.125/150
AUBIESAT-1 18 Dec 14:37:27 14:41:42 76° 288° (WNW) 14:45:33 437.475
ITAMSAT 1 18 Dec 14:40:31 14:45:20 39° 260° (W) 14:50:10 435.822/435.867
SRMSAT 18 Dec 14:46:06 14:51:20 32° 171° (S) 14:56:32 437.500
BEESAT 2 18 Dec 14:58:14 15:00:30 14° 305° (NW) 15:02:47 435.950
M-CUBED/EXP-1 PRIME 18 Dec 15:01:34 15:05:24 32° 292° (WNW) 15:08:56 437.505
ITUPSAT 1 18 Dec 15:09:57 15:12:25 14° 292° (WNW) 15:14:53 437.325
SWISSCUBE 18 Dec 15:11:01 15:12:56 12° 292° (WNW) 15:14:51 437.505
JUGNU 18 Dec 15:36:01 15:41:27 37° 184° (S) 15:46:52 437.505
JAS-2 18 Dec 15:39:01 15:44:41 23° 68° (ENE) 15:50:06 435.910
KKS-1 18 Dec 15:40:45 15:44:35 29° 287° (WNW) 15:48:26 437.445
STARS 18 Dec 15:42:04 15:46:15 43° 286° (WNW) 15:50:27 437.465
AO-7 18 Dec 15:51:59 16:00:17 81° 72° (ENE) 16:08:38 29.400- 29.500
AIST 1 18 Dec 15:58:59 16:01:15 14° 88° (E) 16:03:32
HORYU 2 18 Dec 16:02:33 16:05:49 20° 263° (W) 16:09:07 437.375
MOZHAYETS 4 18 Dec 16:32:57 16:36:33 22° 96° (E) 16:40:07
SRMSAT 18 Dec 16:34:42 16:40:09 38° 181° (S) 16:45:35 437.500
GONETS M04 18 Dec 16:35:14 16:42:48 32° 77° (ENE) 16:50:15
Cubesat XI-IV 18 Dec 17:17:44 17:22:05 26° 70° (ENE) 17:26:26 437.490
JAS-2 18 Dec 17:21:28 17:29:10 60° 259° (W) 17:36:28 435.910
JUGNU 18 Dec 17:25:17 17:30:05 26° 193° (SSW) 17:34:52 437.505
AIST 1 18 Dec 17:34:39 17:38:33 31° 279° (W) 17:42:28
AO-7 18 Dec 17:49:21 17:53:35 15° 265° (W) 17:57:52 29.400- 29.500
CUTE-I 18 Dec 17:50:42 17:55:54 57° 74° (ENE) 18:01:07 437.470
PRISM 18 Dec 18:08:44 18:12:33 35° 99° (E) 18:16:19 437.425
MOZHAYETS 4 18 Dec 18:09:56 18:13:37 24° 288° (WNW) 18:17:18
SRMSAT 18 Dec 18:23:54 18:28:58 30° 191° (S) 18:34:01 437.500
GONETS M04 18 Dec 18:31:32 18:39:33 42° 271° (W) 18:47:30
STRAND 1 18 Dec 18:40:52 18:45:25 33° 99° (E) 18:49:57 437.568
MaSat-1 18 Dec 18:53:48 18:54:59 12° 66° (ENE) 18:56:11 437.345
Cubesat XI-IV 18 Dec 18:57:28 19:01:59 28° 262° (W) 19:06:31 437.490
JUGNU 18 Dec 19:16:36 19:18:36 12° 201° (SSW) 19:20:36 437.505
CUBESAT XI-V 18 Dec 19:25:42 19:30:13 57° 284° (WNW) 19:34:42 437.345
CUTE-I 18 Dec 19:34:13 19:36:11 12° 266° (W) 19:38:09 437.470
CANX-2 18 Dec 19:34:27 19:34:45 10° 68° (ENE) 19:35:02 2200.000
DANDE 18 Dec 19:45:54 19:49:37 14° 72° (ENE) 19:53:27 436.750
PRISM 18 Dec 19:45:57 19:47:42 12° 291° (WNW) 19:49:26 437.425
HO-68 18 Dec 19:51:25 19:57:46 35° 68° (ENE) 20:04:06 435.675
COMPASS 1 18 Dec 20:00:35 20:02:50 14° 70° (ENE) 20:05:07 437.405
SEEDS 18 Dec 20:02:18 20:05:14 19° 71° (ENE) 20:08:12 437.485
CUTE 1.7 + AOD 2 18 Dec 20:02:22 20:05:39 22° 72° (ENE) 20:08:57 437.475
SRMSAT 18 Dec 20:14:18 20:17:40 16° 199° (SSW) 20:21:01 437.500
BRITE-PL 18 Dec 20:19:35 20:23:36 40° 75° (ENE) 20:27:29 437.365/2234.400
STRAND 1 18 Dec 20:20:37 20:24:19 21° 291° (WNW) 20:28:01 437.568
DELFI C3 18 Dec 20:32:02 20:32:51 11° 69° (ENE) 20:33:41 145.870
Oscar 11 18 Dec 20:32:02 20:34:25 15° 70° (ENE) 20:36:48 145.826/435.025
CINEMA 3 18 Dec 20:38:19 20:40:58 17° 71° (ENE) 20:43:37 145.822/145.860
UKube-1 18 Dec 20:39:25 20:41:33 14° 69° (ENE) 20:43:41 .
CUSAT 1 18 Dec 20:44:52 20:52:33 49° 80° (E) 21:00:41 437.405
RS-15 18 Dec 20:56:41 21:07:02 38° 54° (NE) 21:17:43 29.354- 29.394
GOMX 1 18 Dec 20:57:06 21:01:20 84° 78° (ENE) 21:05:28 467.674
ZACube-1 18 Dec 20:57:50 20:59:07 11° 69° (ENE) 21:00:24 437.345
AAUSAT CUBESAT 2 18 Dec 21:00:14 21:04:24 76° 77° (ENE) 21:08:37 437.432
CANX-2 18 Dec 21:06:07 21:10:11 46° 260° (W) 21:14:18 2200.000
UWE-3 18 Dec 21:18:05 21:21:30 26° 73° (ENE) 21:24:59 435.000/436.395/437.385
FUNcube-1 18 Dec 21:22:59 21:26:20 24° 72° (ENE) 21:29:42 145.935
DANDE 18 Dec 21:25:35 21:33:36 83° 83° (E) 21:42:20 436.750
AISAT 18 Dec 21:32:06 21:35:09 19° 71° (ENE) 21:38:11 437.250
DOVE 4 18 Dec 21:32:45 21:36:45 46° 260° (W) 21:40:45 437.250
COMPASS 1 18 Dec 21:34:28 21:38:13 32° 262° (W) 21:42:01 437.405
SEEDS 18 Dec 21:37:23 21:40:50 24° 263° (W) 21:44:19 437.485
SO-50 18 Dec 21:37:40 21:42:05 63° 298° (WNW) 21:46:39 436.795
CUTE 1.7 + AOD 2 18 Dec 21:38:15 21:41:26 21° 264° (W) 21:44:38 437.475
HO-68 18 Dec 21:38:57 21:45:17 34° 261° (W) 21:51:40 435.675
DX 1 18 Dec 21:39:30 21:43:51 84° 77° (ENE) 21:48:12 434.975-435.025
BRITE-PL 18 Dec 22:01:44 22:02:11 10° 265° (W) 22:02:39 437.365/2234.400
DELFI C3 18 Dec 22:03:49 22:07:41 41° 261° (W) 22:11:35 145.870
ISS 18 Dec 22:05:08 22:08:19 49° 45° (NE) 22:11:29 145.825
Oscar 11 18 Dec 22:06:21 22:10:14 33° 262° (W) 22:14:10 145.826/435.025
50 SAT 18 Dec 22:06:37 22:10:18 37° 75° (ENE) 22:14:01 437.505
CUBEBUG 2 18 Dec 22:11:12 22:15:12 49° 260° (W) 22:19:16 437.445
HUMSAT D 18 Dec 22:11:51 22:15:53 58° 76° (ENE) 22:19:57 437.325/437.525
UKube-1 18 Dec 22:13:21 22:17:20 36° 261° (W) 22:21:20 .
CINEMA 3 18 Dec 22:14:31 22:17:56 25° 263° (W) 22:21:23 145.822/145.860
QB50P1 18 Dec 22:19:59 22:22:07 14° 95° (E) 22:24:15 145.935-145.965
ESTCUBE 1 18 Dec 22:20:35 22:24:17 25° 72° (ENE) 22:28:00 437.505/2401.250
TIGRISAT 18 Dec 22:22:00 22:25:57 27° 97° (E) 22:29:54 435.000
VELOX 1 18 Dec 22:25:02 22:29:28 84° 77° (ENE) 22:33:54 145.980
CUSAT 1 18 Dec 22:28:32 22:35:19 31° 271° (W) 22:42:24 437.405
ZACube-1 18 Dec 22:31:11 22:35:04 39° 261° (W) 22:39:00 437.345
BEESAT 3 18 Dec 22:45:44 22:48:41 19° 56° (ENE) 22:51:36 437.485
POPSAT HIP 1 18 Dec 22:46:53 22:50:40 31° 98° (E) 22:54:27 437.405
UNISAT 6 18 Dec 22:49:25 22:54:04 59° 101° (E) 22:58:43 437.425
UWE-3 18 Dec 22:55:22 22:58:00 16° 265° (W) 23:00:40 435.000/436.395/437.385
FUNcube-1 18 Dec 22:59:48 23:02:35 18° 264° (W) 23:05:25 145.935
SPROUT 18 Dec 23:03:21 23:05:33 14° 70° (ENE) 23:07:45 437.525
TISAT 1 18 Dec 23:06:23 23:09:04 17° 71° (ENE) 23:11:44 437.305
AISAT 18 Dec 23:07:46 23:11:31 27° 262° (W) 23:15:17 437.250
RS-15 18 Dec 23:08:38 23:19:32 52° 251° (WSW) 23:30:57 29.354- 29.394
DANDE 18 Dec 23:11:44 23:16:25 17° 274° (W) 23:21:17 436.750
DUCHIFAT 1 18 Dec 23:15:35 23:19:50 75° 102° (ESE) 23:24:05 145.980
CUBEBUG 1 18 Dec 23:20:44 23:25:03 59° 259° (W) 23:29:22 437.445
ANTELSAT 18 Dec 23:21:09 23:25:47 57° 284° (WNW) 23:30:24 437.575/2403.000
BEESAT 2 18 Dec 23:22:49 23:26:48 44° 61° (ENE) 23:30:44 435.950
PCSat 18 Dec 23:23:27 23:27:45 24° 59° (ENE) 23:32:02 145.827
BUGSAT 1 18 Dec 23:24:51 23:28:54 77° 102° (ESE) 23:32:59 437.445
QB50P2 18 Dec 23:27:36 23:31:52 74° 283° (WNW) 23:36:08 145.880/145.840
YUBILEINY 18 Dec 23:32:44 23:40:33 38° 88° (E) 23:48:20 435.215
POLYITAN 1 18 Dec 23:35:43 23:39:56 57° 284° (WNW) 23:44:08 437.675
NANOSAT C BR1 18 Dec 23:39:53 23:44:00 51° 284° (WNW) 23:48:08 145.865
50 SAT 18 Dec 23:44:58 23:45:37 10° 266° (W) 23:46:15 437.505
QB50P1 18 Dec 23:54:11 23:58:00 33° 286° (WNW) 00:01:51 145.935-145.965
ESTCUBE 1 18 Dec 23:57:37 00:01:02 21° 263° (W) 00:04:28 437.505/2401.250
TIGRISAT 18 Dec 23:58:53 00:02:28 22° 289° (WNW) 00:06:04 435.000
AIST 2 19 Dec 00:17:49 00:22:05 88° 64° (ENE) 00:26:16 435.215
BEESAT 3 19 Dec 00:23:20 00:26:48 26° 249° (WSW) 00:30:14 437.485
POPSAT HIP 1 19 Dec 00:23:46 00:26:15 15° 290° (WNW) 00:28:46 437.405
UNISAT 6 19 Dec 00:29:48 00:30:17 10° 293° (WNW) 00:30:45 437.425
ITUPSAT 1 19 Dec 00:31:15 00:35:00 23° 71° (ENE) 00:38:46 437.325
SWISSCUBE 19 Dec 00:31:25 00:35:22 26° 71° (ENE) 00:39:18 437.505
SPROUT 19 Dec 00:37:25 00:41:17 34° 261° (W) 00:45:11 437.525
O/OREOS (USA 219) 19 Dec 00:39:05 00:43:18 43° 104° (ESE) 00:47:31 437.305
TISAT 1 19 Dec 00:41:03 00:44:37 27° 262° (W) 00:48:13 437.305
BEESAT 19 Dec 00:56:08 01:00:42 46° 74° (ENE) 01:05:16 436.000
BEESAT 2 19 Dec 01:04:10 01:04:34 10° 253° (WSW) 01:04:59 435.950
PCSat 19 Dec 01:06:18 01:11:08 34° 252° (WSW) 01:15:56 145.827
Oscar 19 19 Dec 01:10:10 01:14:30 27° 97° (E) 01:18:48 437.125/150
AUBIESAT-1 19 Dec 01:18:56 01:23:26 48° 70° (ENE) 01:28:07 437.475
ITAMSAT 1 19 Dec 01:24:32 01:25:28 10° 94° (E) 01:26:24 435.822/435.867
YUBILEINY 19 Dec 01:29:21 01:37:09 36° 282° (WNW) 01:44:58 435.215
M-CUBED/EXP-1 PRIME 19 Dec 01:42:52 01:47:33 81° 254° (WSW) 01:52:27 437.505
ITUPSAT 1 19 Dec 02:08:43 02:12:42 26° 262° (W) 02:16:42 437.325
SWISSCUBE 19 Dec 02:09:19 02:13:05 23° 263° (W) 02:16:51 437.505
O/OREOS (USA 219) 19 Dec 02:21:09 02:22:51 12° 297° (WNW) 02:24:33 437.305
KKS-1 19 Dec 02:31:32 02:35:56 77° 258° (WSW) 02:40:22 437.445
STARS 19 Dec 02:32:06 02:36:26 68° 76° (ENE) 02:40:47 437.465
BEESAT 19 Dec 02:36:38 02:38:39 13° 265° (W) 02:40:41 436.000
Gurwin Techsat 1B 19 Dec 02:43:57 02:49:06 51° 100° (E) 02:54:14 435.225
VERMONT LUNAR 19 Dec 02:47:53 02:51:22 60° 145° (SE) 02:54:51 437.305
Oscar 19 19 Dec 02:49:24 02:53:40 26° 289° (WNW) 02:57:55 437.125/150
PHONESAT 2.4 19 Dec 02:52:39 02:56:01 37° 143° (SE) 02:59:23 2401.200-2431.200
AUBIESAT-1 19 Dec 02:56:19 02:58:32 13° 262° (W) 03:00:48 437.475
ITAMSAT 1 19 Dec 03:00:07 03:05:12 61° 285° (WNW) 03:10:17 435.822/435.867
AIST 1 19 Dec 03:49:06 03:52:52 30° 80° (E) 03:56:36
HORYU 2 19 Dec 03:59:47 04:04:13 58° 285° (WNW) 04:08:38 437.375
AO-7 19 Dec 04:01:52 04:09:43 43° 102° (ESE) 04:17:30 29.400- 29.500
Gurwin Techsat 1B 19 Dec 04:25:46 04:28:34 15° 293° (WNW) 04:31:21 435.225
VERMONT LUNAR 19 Dec 04:27:01 04:29:52 23° 339° (NNW) 04:32:44 437.305
PHONESAT 2.4 19 Dec 04:31:29 04:34:43 30° 336° (NNW) 04:37:59 2401.200-2431.200
JAS-2 19 Dec 04:41:03 04:45:20 24° 96° (E) 04:49:27 435.910
PRISM 19 Dec 04:55:12 04:56:37 12° 69° (ENE) 04:58:03 437.425
